Time,TemperatureF,DewpointF,PressureIn,WindDirection,WindDirectionDegrees,WindSpeedMPH,WindSpeedGustMPH,Humidity,HourlyPrecipIn,Conditions,Clouds,dailyrainin,SoftwareType,DateUTC
2013-05-08 00:02:00,60.0,-99.9,29.97,SW,232,4.0,5.0,-999,-99.99,,,-99.99,,2013-05-08 04:02:00,
2013-05-08 00:13:00,60.0,-99.9,29.97,SW,223,5.0,5.0,-999,-99.99,,,-99.99,,2013-05-08 04:13:00,
2013-05-08 00:23:00,61.0,-99.9,29.97,SW,221,5.0,6.0,-999,-99.99,,,-99.99,,2013-05-08 04:23:00,
2013-05-08 00:33:00,61.0,-99.9,29.97,SSW,213,5.0,6.0,-999,-99.99,,,-99.99,,2013-05-08 04:33:00,
2013-05-08 00:43:00,61.0,-99.9,29.97,SW,227,5.0,6.0,-999,-99.99,,,-99.99,,2013-05-08 04:43:00,
2013-05-08 00:53:00,60.0,-99.9,29.97,WSW,243,6.0,7.0,-999,-99.99,,,-99.99,,2013-05-08 04:53:00,
2013-05-08 01:03:00,60.0,-99.9,29.97,WSW,248,5.0,8.0,-999,-99.99,,,-99.99,,2013-05-08 05:03:00,
2013-05-08 01:12:00,60.0,-99.9,29.97,WSW,243,6.0,8.0,-999,-99.99,,,-99.99,,2013-05-08 05:12:00,
2013-05-08 01:22:00,60.0,-99.9,29.97,WSW,238,6.0,8.0,-999,-99.99,,,-99.99,,2013-05-08 05:22:00,
2013-05-08 01:32:00,60.0,-99.9,29.97,SW,233,6.0,8.0,-999,-99.99,,,-99.99,,2013-05-08 05:32:00,
2013-05-08 01:42:00,60.0,-99.9,29.97,SW,233,7.0,10.0,-999,-99.99,,,-99.99,,2013-05-08 05:42:00,
2013-05-08 01:52:00,60.0,-99.9,29.96,SW,235,7.0,9.0,-999,-99.99,,,-99.99,,2013-05-08 05:52:00,
2013-05-08 02:02:00,60.0,-99.9,29.96,SW,231,6.0,7.0,-999,-99.99,,,-99.99,,2013-05-08 06:02:00,
2013-05-08 02:12:00,60.0,-99.9,29.96,SW,231,5.0,8.0,-999,-99.99,,,-99.99,,2013-05-08 06:12:00,
2013-05-08 02:22:00,61.0,-99.9,29.96,SW,214,4.0,5.0,-999,-99.99,,,-99.99,,2013-05-08 06:22:00,
2013-05-08 02:32:00,60.0,-99.9,29.96,WSW,239,4.0,4.0,-999,-99.99,,,-99.99,,2013-05-08 06:32:00,
2013-05-08 02:42:00,60.0,-99.9,29.95,WSW,237,4.0,5.0,-999,-99.99,,,-99.99,,2013-05-08 06:42:00,
2013-05-08 02:52:00,60.0,-99.9,29.95,WSW,246,5.0,7.0,-999,-99.99,,,-99.99,,2013-05-08 06:52:00,
2013-05-08 03:02:00,61.0,-99.9,29.95,WSW,253,5.0,6.0,-999,-99.99,,,-99.99,,2013-05-08 07:02:00,
2013-05-08 03:11:00,61.0,-99.9,29.95,WSW,250,5.0,6.0,-999,-99.99,,,-99.99,,2013-05-08 07:11:00,
2013-05-08 03:22:00,60.0,-99.9,29.94,WSW,245,4.0,6.0,-999,-99.99,,,-99.99,,2013-05-08 07:22:00,
2013-05-08 03:32:00,61.0,-99.9,29.94,WSW,254,5.0,6.0,-999,-99.99,,,-99.99,,2013-05-08 07:32:00,
2013-05-08 03:42:00,61.0,-99.9,29.94,WSW,249,4.0,5.0,-999,-99.99,,,-99.99,,2013-05-08 07:42:00,
2013-05-08 03:52:00,61.0,-99.9,29.94,WSW,256,6.0,7.0,-999,-99.99,,,-99.99,,2013-05-08 07:52:00,
2013-05-08 04:02:00,61.0,-99.9,29.95,WSW,247,7.0,8.0,-999,-99.99,,,-99.99,,2013-05-08 08:02:00,
2013-05-08 04:12:00,61.0,-99.9,29.95,WSW,256,4.0,7.0,-999,-99.99,,,-99.99,,2013-05-08 08:12:00,
2013-05-08 04:22:00,62.0,-99.9,29.95,West,265,4.0,5.0,-999,-99.99,,,-99.99,,2013-05-08 08:22:00,
2013-05-08 04:32:00,62.0,-99.9,29.95,West,263,3.0,4.0,-999,-99.99,,,-99.99,,2013-05-08 08:32:00,
2013-05-08 04:43:00,62.0,-99.9,29.95,West,264,3.0,4.0,-999,-99.99,,,-99.99,,2013-05-08 08:43:00,
2013-05-08 04:52:00,62.0,-99.9,29.95,West,266,3.0,4.0,-999,-99.99,,,-99.99,,2013-05-08 08:52:00,
2013-05-08 05:02:00,62.0,-99.9,29.95,West,280,2.0,2.0,-999,-99.99,,,-99.99,,2013-05-08 09:02:00,
2013-05-08 05:11:00,62.0,-99.9,29.94,West,259,1.0,3.0,-999,-99.99,,,-99.99,,2013-05-08 09:11:00,
2013-05-08 05:22:00,61.0,-99.9,29.94,West,259,-999.0,0.0,-999,-99.99,,,-99.99,,2013-05-08 09:22:00,
2013-05-08 05:32:00,61.0,-99.9,29.94,SW,232,2.0,2.0,-999,-99.99,,,-99.99,,2013-05-08 09:32:00,
2013-05-08 05:42:00,61.0,-99.9,29.94,WSW,250,2.0,2.0,-999,-99.99,,,-99.99,,2013-05-08 09:42:00,
2013-05-08 05:53:00,62.0,-99.9,29.95,WSW,248,2.0,2.0,-999,-99.99,,,-99.99,,2013-05-08 09:53:00,
2013-05-08 06:03:00,61.0,-99.9,29.95,SW,220,2.0,2.0,-999,-99.99,,,-99.99,,2013-05-08 10:03:00,
2013-05-08 06:12:00,61.0,-99.9,29.96,SW,229,3.0,3.0,-999,-99.99,,,-99.99,,2013-05-08 10:12:00,
2013-05-08 06:23:00,62.0,-99.9,29.96,WSW,257,4.0,4.0,-999,-99.99,,,-99.99,,2013-05-08 10:23:00,
2013-05-08 06:33:00,62.0,-99.9,29.96,WSW,250,3.0,4.0,-999,-99.99,,,-99.99,,2013-05-08 10:33:00,
2013-05-08 06:42:00,62.0,-99.9,29.97,WSW,249,4.0,4.0,-999,-99.99,,,-99.99,,2013-05-08 10:42:00,
2013-05-08 06:53:00,62.0,-99.9,29.97,WSW,257,4.0,4.0,-999,-99.99,,,-99.99,,2013-05-08 10:53:00,
2013-05-08 07:02:00,62.0,-99.9,29.97,SW,230,2.0,3.0,-999,-99.99,,,-99.99,,2013-05-08 11:02:00,
2013-05-08 07:12:00,62.0,-99.9,29.97,WSW,238,3.0,3.0,-999,-99.99,,,-99.99,,2013-05-08 11:12:00,
2013-05-08 07:22:00,61.0,-99.9,29.97,WSW,238,4.0,4.0,-999,-99.99,,,-99.99,,2013-05-08 11:22:00,
2013-05-08 07:33:00,63.0,-99.9,29.98,WSW,253,3.0,4.0,-999,-99.99,,,-99.99,,2013-05-08 11:33:00,
2013-05-08 07:42:00,63.0,-99.9,29.98,WSW,247,2.0,3.0,-999,-99.99,,,-99.99,,2013-05-08 11:42:00,
2013-05-08 07:52:00,64.0,-99.9,29.99,WSW,242,2.0,2.0,-999,-99.99,,,-99.99,,2013-05-08 11:52:00,
2013-05-08 08:02:00,65.0,-99.9,30.00,WSW,239,2.0,2.0,-999,-99.99,,,-99.99,,2013-05-08 12:02:00,
2013-05-08 08:11:00,65.0,-99.9,30.00,SW,225,1.0,2.0,-999,-99.99,,,-99.99,,2013-05-08 12:11:00,
2013-05-08 08:22:00,65.0,-99.9,30.00,SSE,152,1.0,2.0,-999,-99.99,,,-99.99,,2013-05-08 12:22:00,
2013-05-08 08:32:00,65.0,-99.9,30.00,West,274,4.0,5.0,-999,-99.99,,,-99.99,,2013-05-08 12:32:00,
2013-05-08 08:42:00,64.0,-99.9,30.00,West,277,6.0,6.0,-999,-99.99,,,-99.99,,2013-05-08 12:42:00,
2013-05-08 08:52:00,64.0,-99.9,30.01,West,273,4.0,5.0,-999,-99.99,,,-99.99,,2013-05-08 12:52:00,
2013-05-08 09:01:00,65.0,-99.9,30.01,SSE,166,0.0,2.0,-999,-99.99,,,-99.99,,2013-05-08 13:01:00,
2013-05-08 09:12:00,66.0,-99.9,30.01,ENE,69,1.0,2.0,-999,-99.99,,,-99.99,,2013-05-08 13:12:00,
2013-05-08 09:22:00,66.0,-99.9,30.02,SSE,157,-999.0,2.0,-999,-99.99,,,-99.99,,2013-05-08 13:22:00,
2013-05-08 09:32:00,65.0,-99.9,30.02,SE,142,4.0,4.0,-999,-99.99,,,-99.99,,2013-05-08 13:32:00,
2013-05-08 09:42:00,65.0,-99.9,30.01,SSE,147,5.0,6.0,-999,-99.99,,,-99.99,,2013-05-08 13:42:00,
2013-05-08 09:52:00,63.0,-99.9,30.02,SE,137,6.0,13.0,-999,-99.99,,,-99.99,,2013-05-08 13:52:00,
2013-05-08 10:02:00,64.0,-99.9,30.02,SE,139,8.0,10.0,-999,-99.99,,,-99.99,,2013-05-08 14:02:00,
2013-05-08 10:12:00,64.0,-99.9,30.02,SE,137,6.0,9.0,-999,-99.99,,,-99.99,,2013-05-08 14:12:00,
2013-05-08 10:22:00,64.0,-99.9,30.02,SE,140,8.0,10.0,-999,-99.99,,,-99.99,,2013-05-08 14:22:00,
2013-05-08 10:32:00,64.0,-99.9,30.03,SE,146,6.0,10.0,-999,-99.99,,,-99.99,,2013-05-08 14:32:00,
2013-05-08 10:42:00,65.0,-99.9,30.03,SE,142,6.0,9.0,-999,-99.99,,,-99.99,,2013-05-08 14:42:00,
2013-05-08 10:52:00,65.0,-99.9,30.03,SSE,160,6.0,9.0,-999,-99.99,,,-99.99,,2013-05-08 14:52:00,
2013-05-08 11:02:00,65.0,-99.9,30.03,South,169,5.0,7.0,-999,-99.99,,,-99.99,,2013-05-08 15:02:00,
2013-05-08 11:11:00,66.0,-99.9,30.03,SSE,162,5.0,6.0,-999,-99.99,,,-99.99,,2013-05-08 15:11:00,
2013-05-08 11:22:00,66.0,-99.9,30.03,South,169,5.0,6.0,-999,-99.99,,,-99.99,,2013-05-08 15:22:00,
2013-05-08 11:33:00,66.0,-99.9,30.03,SSE,162,5.0,7.0,-999,-99.99,,,-99.99,,2013-05-08 15:33:00,
2013-05-08 11:42:00,66.0,-99.9,30.03,SSE,166,5.0,6.0,-999,-99.99,,,-99.99,,2013-05-08 15:42:00,
2013-05-08 11:53:00,67.0,-99.9,30.03,South,184,4.0,6.0,-999,-99.99,,,-99.99,,2013-05-08 15:53:00,
2013-05-08 12:03:00,67.0,-99.9,30.03,South,171,5.0,7.0,-999,-99.99,,,-99.99,,2013-05-08 16:03:00,
2013-05-08 12:13:00,68.0,-99.9,30.03,South,178,4.0,8.0,-999,-99.99,,,-99.99,,2013-05-08 16:13:00,
2013-05-08 12:23:00,68.0,-99.9,30.03,South,189,4.0,8.0,-999,-99.99,,,-99.99,,2013-05-08 16:23:00,
2013-05-08 12:33:00,67.0,-99.9,30.03,SSW,209,6.0,7.0,-999,-99.99,,,-99.99,,2013-05-08 16:33:00,
2013-05-08 12:42:00,67.0,-99.9,30.03,SSW,205,6.0,8.0,-999,-99.99,,,-99.99,,2013-05-08 16:42:00,
2013-05-08 12:52:00,68.0,-99.9,30.03,SSW,192,4.0,7.0,-999,-99.99,,,-99.99,,2013-05-08 16:52:00,
2013-05-08 13:02:00,67.0,-99.9,30.03,SSW,201,5.0,9.0,-999,-99.99,,,-99.99,,2013-05-08 17:02:00,
2013-05-08 13:12:00,67.0,-99.9,30.03,SSW,212,6.0,9.0,-999,-99.99,,,-99.99,,2013-05-08 17:12:00,
2013-05-08 13:22:00,68.0,-99.9,30.03,SSW,192,5.0,8.0,-999,-99.99,,,-99.99,,2013-05-08 17:22:00,
2013-05-08 13:32:00,68.0,-99.9,30.03,SSW,192,5.0,8.0,-999,-99.99,,,-99.99,,2013-05-08 17:32:00,
2013-05-08 13:42:00,68.0,-99.9,30.03,SSW,192,5.0,8.0,-999,-99.99,,,-99.99,,2013-05-08 17:42:00,
2013-05-08 13:52:00,67.0,-99.9,30.02,SSE,167,7.0,8.0,-999,-99.99,,,-99.99,,2013-05-08 17:52:00,
2013-05-08 14:02:00,68.0,-99.9,30.02,South,173,6.0,9.0,-999,-99.99,,,-99.99,,2013-05-08 18:02:00,
2013-05-08 14:12:00,68.0,-99.9,30.02,South,171,5.0,9.0,-999,-99.99,,,-99.99,,2013-05-08 18:12:00,
2013-05-08 14:22:00,67.0,-99.9,30.02,South,172,6.0,8.0,-999,-99.99,,,-99.99,,2013-05-08 18:22:00,
2013-05-08 14:32:00,67.0,-99.9,30.02,South,179,8.0,10.0,-999,-99.99,,,-99.99,,2013-05-08 18:32:00,
2013-05-08 14:42:00,68.0,-99.9,30.01,South,173,8.0,10.0,-999,-99.99,,,-99.99,,2013-05-08 18:42:00,
2013-05-08 14:52:00,67.0,-99.9,30.01,South,178,8.0,11.0,-999,-99.99,,,-99.99,,2013-05-08 18:52:00,
2013-05-08 15:02:00,67.0,-99.9,30.01,South,179,9.0,10.0,-999,-99.99,,,-99.99,,2013-05-08 19:02:00,
2013-05-08 15:11:00,68.0,-99.9,30.01,South,178,8.0,12.0,-999,-99.99,,,-99.99,,2013-05-08 19:11:00,
2013-05-08 15:22:00,67.0,-99.9,30.01,South,174,9.0,10.0,-999,-99.99,,,-99.99,,2013-05-08 19:22:00,
2013-05-08 15:32:00,67.0,-99.9,30.01,South,176,9.0,12.0,-999,-99.99,,,-99.99,,2013-05-08 19:32:00,
2013-05-08 15:42:00,67.0,-99.9,30.01,South,177,9.0,11.0,-999,-99.99,,,-99.99,,2013-05-08 19:42:00,
2013-05-08 15:52:00,67.0,-99.9,30.00,South,169,10.0,13.0,-999,-99.99,,,-99.99,,2013-05-08 19:52:00,
2013-05-08 16:02:00,67.0,-99.9,30.00,SSE,168,8.0,11.0,-999,-99.99,,,-99.99,,2013-05-08 20:02:00,
2013-05-08 16:12:00,67.0,-99.9,30.00,South,170,7.0,11.0,-999,-99.99,,,-99.99,,2013-05-08 20:12:00,
2013-05-08 16:22:00,67.0,-99.9,30.00,South,177,9.0,11.0,-999,-99.99,,,-99.99,,2013-05-08 20:22:00,
2013-05-08 16:32:00,67.0,-99.9,29.99,South,177,8.0,11.0,-999,-99.99,,,-99.99,,2013-05-08 20:32:00,
2013-05-08 16:42:00,67.0,-99.9,29.99,SSE,167,10.0,13.0,-999,-99.99,,,-99.99,,2013-05-08 20:42:00,
2013-05-08 16:52:00,68.0,-99.9,29.99,South,169,8.0,12.0,-999,-99.99,,,-99.99,,2013-05-08 20:52:00,
2013-05-08 17:02:00,68.0,-99.9,29.99,South,172,7.0,11.0,-999,-99.99,,,-99.99,,2013-05-08 21:02:00,
2013-05-08 17:12:00,67.0,-99.9,29.99,South,176,9.0,12.0,-999,-99.99,,,-99.99,,2013-05-08 21:12:00,
2013-05-08 17:22:00,68.0,-99.9,29.98,South,177,9.0,12.0,-999,-99.99,,,-99.99,,2013-05-08 21:22:00,
2013-05-08 17:33:00,69.0,-99.9,29.98,South,188,6.0,11.0,-999,-99.99,,,-99.99,,2013-05-08 21:33:00,
2013-05-08 17:43:00,69.0,-99.9,29.98,South,185,6.0,10.0,-999,-99.99,,,-99.99,,2013-05-08 21:43:00,
2013-05-08 17:53:00,69.0,-99.9,29.98,SSW,198,6.0,9.0,-999,-99.99,,,-99.99,,2013-05-08 21:53:00,
2013-05-08 18:03:00,69.0,-99.9,29.98,SSW,198,6.0,13.0,-999,-99.99,,,-99.99,,2013-05-08 22:03:00,
2013-05-08 18:12:00,69.0,-99.9,29.98,South,190,6.0,10.0,-999,-99.99,,,-99.99,,2013-05-08 22:12:00,
2013-05-08 18:22:00,68.0,-99.9,29.97,SSW,194,6.0,11.0,-999,-99.99,,,-99.99,,2013-05-08 22:22:00,
2013-05-08 18:33:00,68.0,-99.9,29.97,SSW,200,7.0,12.0,-999,-99.99,,,-99.99,,2013-05-08 22:33:00,
2013-05-08 18:42:00,68.0,-99.9,29.97,SSW,200,8.0,13.0,-999,-99.99,,,-99.99,,2013-05-08 22:42:00,
2013-05-08 18:53:00,68.0,-99.9,29.97,SSW,196,9.0,14.0,-999,-99.99,,,-99.99,,2013-05-08 22:53:00,
2013-05-08 19:02:00,67.0,-99.9,29.97,SSW,206,10.0,14.0,-999,-99.99,,,-99.99,,2013-05-08 23:02:00,
2013-05-08 19:12:00,67.0,-99.9,29.97,SSW,211,10.0,14.0,-999,-99.99,,,-99.99,,2013-05-08 23:12:00,
2013-05-08 19:22:00,67.0,-99.9,29.97,SSW,203,10.0,14.0,-999,-99.99,,,-99.99,,2013-05-08 23:22:00,
2013-05-08 19:33:00,67.0,-99.9,29.97,SSW,207,10.0,15.0,-999,-99.99,,,-99.99,,2013-05-08 23:33:00,
2013-05-08 19:42:00,66.0,-99.9,29.97,SSW,208,10.0,13.0,-999,-99.99,,,-99.99,,2013-05-08 23:42:00,
2013-05-08 19:53:00,66.0,-99.9,29.98,SSW,206,8.0,13.0,-999,-99.99,,,-99.99,,2013-05-08 23:53:00,
2013-05-08 20:02:00,66.0,-99.9,29.98,SSW,195,9.0,13.0,-999,-99.99,,,-99.99,,2013-05-09 00:02:00,
2013-05-08 20:12:00,66.0,-99.9,29.98,SSW,197,8.0,11.0,-999,-99.99,,,-99.99,,2013-05-09 00:12:00,
2013-05-08 20:21:00,65.0,-99.9,29.98,SSW,207,11.0,14.0,-999,-99.99,,,-99.99,,2013-05-09 00:21:00,
2013-05-08 20:32:00,65.0,-99.9,29.98,SSW,210,10.0,14.0,-999,-99.99,,,-99.99,,2013-05-09 00:32:00,
2013-05-08 20:42:00,65.0,-99.9,29.99,SSW,208,10.0,13.0,-999,-99.99,,,-99.99,,2013-05-09 00:42:00,
2013-05-08 20:52:00,65.0,-99.9,29.99,SW,216,9.0,12.0,-999,-99.99,,,-99.99,,2013-05-09 00:52:00,
2013-05-08 21:02:00,65.0,-99.9,29.99,SW,215,9.0,13.0,-999,-99.99,,,-99.99,,2013-05-09 01:02:00,
2013-05-08 21:12:00,65.0,-99.9,29.99,SW,217,9.0,13.0,-999,-99.99,,,-99.99,,2013-05-09 01:12:00,
2013-05-08 21:22:00,64.0,-99.9,29.99,SW,220,7.0,11.0,-999,-99.99,,,-99.99,,2013-05-09 01:22:00,
2013-05-08 21:32:00,64.0,-99.9,29.99,SW,218,8.0,12.0,-999,-99.99,,,-99.99,,2013-05-09 01:32:00,
2013-05-08 21:42:00,64.0,-99.9,29.99,SW,215,9.0,11.0,-999,-99.99,,,-99.99,,2013-05-09 01:42:00,
2013-05-08 21:53:00,64.0,-99.9,30.00,SSW,207,10.0,12.0,-999,-99.99,,,-99.99,,2013-05-09 01:53:00,
2013-05-08 22:02:00,64.0,-99.9,30.00,SW,215,9.0,13.0,-999,-99.99,,,-99.99,,2013-05-09 02:02:00,
2013-05-08 22:12:00,64.0,-99.9,30.00,SSW,211,9.0,13.0,-999,-99.99,,,-99.99,,2013-05-09 02:12:00,
2013-05-08 22:22:00,64.0,-99.9,30.00,SSW,213,10.0,14.0,-999,-99.99,,,-99.99,,2013-05-09 02:22:00,
2013-05-08 22:33:00,64.0,-99.9,30.01,SW,215,9.0,13.0,-999,-99.99,,,-99.99,,2013-05-09 02:33:00,
2013-05-08 22:42:00,64.0,-99.9,30.01,SW,215,9.0,13.0,-999,-99.99,,,-99.99,,2013-05-09 02:42:00,
2013-05-08 22:52:00,64.0,-99.9,30.01,SW,215,9.0,13.0,-999,-99.99,,,-99.99,,2013-05-09 02:52:00,
2013-05-08 23:02:00,64.0,-99.9,30.01,SW,219,8.0,11.0,-999,-99.99,,,-99.99,,2013-05-09 03:02:00,
2013-05-08 23:11:00,64.0,-99.9,30.01,SW,220,8.0,10.0,-999,-99.99,,,-99.99,,2013-05-09 03:11:00,
2013-05-08 23:22:00,64.0,-99.9,30.01,SW,222,8.0,11.0,-999,-99.99,,,-99.99,,2013-05-09 03:22:00,
2013-05-08 23:33:00,64.0,-99.9,30.01,SW,216,8.0,10.0,-999,-99.99,,,-99.99,,2013-05-09 03:33:00,
2013-05-08 23:43:00,64.0,-99.9,30.01,SSW,211,8.0,11.0,-999,-99.99,,,-99.99,,2013-05-09 03:43:00,
2013-05-08 23:53:00,64.0,-99.9,30.01,SSW,205,7.0,11.0,-999,-99.99,,,-99.99,,2013-05-09 03:53:00,